Overview Statistics Trail Chart Weather Telemetry Raw packets
 

This is the latest recevied weather packets stored in our database for station/object KY4OP-13. If no packets are shown the sender has not sent any weather packets the latest 10 day(s).

<< 6 7 8 9 10 11 12 >>
Time Temp. Humidity Pressure Rain* Wind** Luminosity Snow
1788556417 23.33° C 95% 1017.4 hPa 1.27 mm - - -
1788556112 23.33° C 94% 1016.9 hPa 4.32 mm - - -
1788555806 23.89° C 92% 1016.9 hPa 3.05 mm - - -
1788555503 24.44° C 90% 1016.4 hPa 1.78 mm - - -
1788555198 25° C 87% 1016.6 hPa 0 mm - - -
1788554895 25.56° C 86% 1016.3 hPa 0 mm - - -
1788554591 26.11° C 85% 1016.3 hPa 0 mm - - -
1788554287 26.11° C 85% 1015.9 hPa 0 mm - - -
1788553983 26.11° C 86% 1015.9 hPa 0 mm - - -
1788553678 26.11° C 86% 1015.7 hPa 0 mm - - -
1788553374 26.67° C 84% 1015.9 hPa 0 mm - - -
1788553070 26.11° C 83% 1016.1 hPa 0 mm - - -
1788552769 26.11° C 86% 1016.9 hPa 0 mm - - -
1788552464 25.56° C 88% 1016.3 hPa 0 mm - - -
1788552159 25° C 90% 1015.9 hPa 0 mm - - -
1788551858 24.44° C 93% 1015.6 hPa 0 mm - - -
1788551557 25.56° C 95% 1015.3 hPa 0 mm - - -
1788551252 25° C 94% 1015 hPa 0 mm - - -
1788550951 25° C 95% 1015.2 hPa 0 mm - - -
1788550646 24.44° C 98% 1015.3 hPa 0 mm - - -
1788550342 24.44° C 98% 1015.7 hPa 0 mm - - -
1788550037 23.33° C 98% 1015.7 hPa 1.27 mm - - -
1788549733 22.78° C 97% 1015.5 hPa 43.69 mm - - -
1788549429 22.78° C 96% 1015.1 hPa 50.29 mm - - -
1788549125 25.56° C 90% 1016 hPa 6.1 mm - - -

* Rain latest hour (hover to see other rain measurements)
** Current wind speed in m/s (hover to see current wind gust speed)